Location: Unspecified
(0.0000°N, 0.0000°E)
Time: 22:20:57
(UTC+00:00)

LES 2 - Pass Details

Date: 20 August 2024
Orbit: 2771 x 14804 km, 32.2° (Epoch: 05 September)

Event Time Altitude Azimuth Distance (km) Brightness Sun altitude
Rises 22:55:28 0° 239° (WSW) 7,450 ? -69.3°
Reaches altitude 10° 23:00:27 10° 227° (SW) 7,035 ? -70.3°
Enters shadow 23:07:49 23° 207° (SSW) 6,989 ? -71.7°
Exits shadow 23:39:29 32° 139° (SE) 10,879 ? -76.6°
Drops below altitude 10° 01:13:14 10° 87° (E) 19,112 ? -68.9°
Sets 01:50:04 0° 76° (ENE) 19,422 ? -60.9°
